| time (UTC) | temp F | wind direction | speed knots | gust knots | rain 1hr in | rain 24hr in | rain mn in | humidity % | barometer mb |
| 20260509074548 | 52 | 180 | 3.5 | 9.6 | 0.00 | 0.00 | 0.00 | 78 | 1003.6 |
| 20260509073047 | 52 | 215 | 2.6 | 8.7 | 0.00 | 0.00 | 0.00 | 76 | 1003.8 |
| 20260509071542 | 52 | 209 | 3.5 | 8.7 | 0.00 | 0.00 | 0.00 | 74 | 1004.1 |
| 20260509070049 | 52 | 242 | 3.5 | 7.8 | 0.00 | 0.00 | 0.00 | 72 | 1004.4 |
| 20260509064555 | 52 | 184 | 2.6 | 7.8 | 0.00 | 0.00 | 0.00 | 68 | 1004.4 |
| 20260509063048 | 51 | 211 | 3.5 | 7.8 | 0.00 | 0.00 | 0.00 | 62 | 1004.5 |
| 20260509061549 | 51 | 215 | 1.7 | 6.1 | 0.00 | 0.00 | 0.00 | 53 | 1004.8 |
| 20260509060047 | 51 | 167 | 2.6 | 9.6 | 0.00 | 0.00 | 0.00 | 47 | 1004.8 |
| 20260509054550 | 51 | 134 | 2.6 | 7.8 | 0.00 | 0.00 | 0.00 | 43 | 1004.9 |
| 20260509053043 | 51 | 180 | 2.6 | 7.8 | 0.00 | 0.00 | 0.00 | 41 | 1005.0 |
| 20260509051559 | 51 | 115 | 3.5 | 9.6 | 0.00 | 0.00 | 0.00 | 40 | 1005.0 |
| 20260509050050 | 52 | 159 | 3.5 | 8.7 | 0.00 | 0.00 | 0.00 | 38 | 1004.9 |
| 20260509044544 | 52 | 164 | 3.5 | 10.4 | 0.00 | 0.00 | 0.00 | 38 | 1005.1 |
| 20260509043049 | 52 | 232 | 3.5 | 8.7 | 0.00 | 0.00 | 0.00 | 37 | 1005.1 |
| 20260509041551 | 52 | 160 | 2.6 | 7.8 | 0.00 | 0.00 | 0.00 | 37 | 1005.2 |
| 20260509040055 | 52 | 158 | 1.7 | 4.3 | 0.00 | 0.00 | 0.00 | 37 | 1005.4 |
| 20260509034550 | 52 | 155 | 1.7 | 7.0 | 0.00 | 0.00 | 0.00 | 36 | 1005.6 |
| 20260509033044 | 52 | 171 | 1.7 | 6.1 | 0.00 | 0.00 | 0.00 | 35 | 1005.7 |
| 20260509031547 | 52 | 176 | 1.7 | 4.3 | 0.00 | 0.00 | 0.00 | 35 | 1005.7 |
| 20260509030044 | 52 | 161 | 1.7 | 5.2 | 0.00 | 0.00 | 0.00 | 35 | 1005.9 |
| 20260509024548 | 51 | 171 | 1.7 | 5.2 | 0.00 | 0.00 | 0.00 | 35 | 1006.2 |
| 20260509023047 | 51 | 187 | 0.9 | 4.3 | 0.00 | 0.00 | 0.00 | 35 | 1006.4 |
| 20260509021543 | 50 | 195 | 0.9 | 2.6 | 0.00 | 0.00 | 0.00 | 35 | 1006.4 |
| 20260509020052 | 49 | 143 | 0.9 | 1.7 | 0.00 | 0.00 | 0.00 | 41 | 1006.4 |
| 20260509014546 | 50 | 163 | 0.0 | 1.7 | 0.00 | 0.00 | 0.00 | 43 | 1006.2 |
| 20260509013055 | 51 | 0 | 0.0 | 1.7 | 0.00 | 0.00 | 0.00 | 41 | 1006.3 |
| 20260509011546 | 53 | 163 | 0.0 | 1.7 | 0.00 | 0.00 | 0.00 | 43 | 1006.1 |
| 20260509010043 | 54 | 186 | 0.0 | 1.7 | 0.00 | 0.00 | 0.00 | 39 | 1006.2 |
| 20260509004549 | 57 | 186 | 0.0 | 1.7 | 0.00 | 0.00 | 0.00 | 30 | 1006.1 |
| 20260509003050 | 58 | 186 | 0.0 | 1.7 | 0.00 | 0.00 | 0.00 | 28 | 1006.1 |
| 20260509001552 | 60 | 215 | 0.9 | 2.6 | 0.00 | 0.00 | 0.00 | 26 | 1006.2 |
| 20260509000049 | 60 | 187 | 2.6 | 4.3 | 0.00 | 0.00 | 0.00 | 24 | 1006.6 |
| 20260508234550 | 61 | 225 | 1.7 | 5.2 | 0.00 | 0.00 | 0.00 | 24 | 1006.6 |
| 20260508233101 | 61 | 229 | 4.3 | 7.8 | 0.00 | 0.00 | 0.00 | 24 | 1006.9 |
| 20260508231552 | 62 | 279 | 2.6 | 7.8 | 0.00 | 0.00 | 0.00 | 28 | 1006.9 |
| 20260508230056 | 63 | 257 | 5.2 | 8.7 | 0.00 | 0.00 | 0.00 | 25 | 1007.0 |
| 20260508224605 | 63 | 273 | 2.6 | 7.0 | 0.00 | 0.00 | 0.00 | 28 | 1006.9 |
| 20260508223044 | 63 | 295 | 3.5 | 10.4 | 0.00 | 0.00 | 0.00 | 28 | 1007.0 |
| 20260508221552 | 64 | 290 | 2.6 | 7.8 | 0.00 | 0.00 | 0.00 | 27 | 1007.1 |
| 20260508220055 | 64 | 274 | 5.2 | 9.6 | 0.00 | 0.00 | 0.00 | 26 | 1007.0 |
| 20260508214547 | 64 | 261 | 4.3 | 8.7 | 0.00 | 0.00 | 0.00 | 26 | 1007.1 |
| 20260508213047 | 65 | 238 | 3.5 | 7.8 | 0.00 | 0.00 | 0.00 | 29 | 1007.1 |
| 20260508211544 | 64 | 266 | 3.5 | 10.4 | 0.00 | 0.00 | 0.00 | 27 | 1007.3 |
| 20260508210050 | 64 | 194 | 3.5 | 8.7 | 0.00 | 0.00 | 0.00 | 31 | 1007.3 |
| 20260508204553 | 64 | 306 | 4.3 | 9.6 | 0.00 | 0.00 | 0.00 | 29 | 1007.4 |
| 20260508203055 | 64 | 313 | 7.0 | 9.6 | 0.00 | 0.00 | 0.00 | 29 | 1007.7 |
| 20260508201543 | 64 | 265 | 2.6 | 8.7 | 0.00 | 0.00 | 0.00 | 27 | 1007.9 |
| 20260508200054 | 63 | 261 | 4.3 | 10.4 | 0.00 | 0.00 | 0.00 | 28 | 1008.1 |
| 20260508194542 | 64 | 294 | 6.1 | 10.4 | 0.00 | 0.00 | 0.00 | 27 | 1008.3 |
| 20260508193049 | 63 | 271 | 3.5 | 8.7 | 0.00 | 0.00 | 0.00 | 29 | 1008.3 |
| 20260508191552 | 62 | 296 | 7.0 | 11.3 | 0.00 | 0.00 | 0.00 | 29 | 1008.6 |
| 20260508190051 | 62 | 257 | 3.5 | 9.6 | 0.00 | 0.00 | 0.00 | 29 | 1008.6 |
| 20260508184553 | 63 | 210 | 6.1 | 11.3 | 0.00 | 0.00 | 0.00 | 28 | 1008.7 |
| 20260508183050 | 62 | 275 | 5.2 | 10.4 | 0.00 | 0.00 | 0.00 | 31 | 1008.9 |
| 20260508181551 | 63 | 275 | 3.5 | 10.4 | 0.00 | 0.00 | 0.00 | 29 | 1009.0 |
| 20260508180049 | 62 | 275 | 6.1 | 10.4 | 0.00 | 0.00 | 0.00 | 30 | 1009.1 |
| 20260508174555 | 62 | 290 | 3.5 | 12.2 | 0.00 | 0.00 | 0.00 | 26 | 1009.3 |
| 20260508173046 | 62 | 233 | 5.2 | 7.8 | 0.00 | 0.00 | 0.00 | 30 | 1009.7 |
| 20260508171546 | 61 | 257 | 5.2 | 8.7 | 0.00 | 0.00 | 0.00 | 31 | 1009.7 |
| 20260508170052 | 61 | 331 | 3.5 | 12.2 | 0.00 | 0.00 | 0.00 | 35 | 1009.8 |
| 20260508164549 | 60 | 302 | 5.2 | 10.4 | 0.00 | 0.00 | 0.00 | 36 | 1010.1 |
| 20260508163043 | 60 | 240 | 3.5 | 7.8 | 0.00 | 0.00 | 0.00 | 36 | 1010.3 |
| 20260508161547 | 60 | 273 | 3.5 | 8.7 | 0.00 | 0.00 | 0.00 | 33 | 1010.4 |
| 20260508160052 | 59 | 350 | 2.6 | 9.6 | 0.00 | 0.00 | 0.00 | 36 | 1010.6 |
| 20260508154549 | 59 | 171 | 3.5 | 8.7 | 0.00 | 0.00 | 0.00 | 37 | 1010.5 |
| 20260508153050 | 58 | 209 | 4.3 | 9.6 | 0.00 | 0.00 | 0.00 | 42 | 1010.6 |
| 20260508151550 | 58 | 246 | 5.2 | 8.7 | 0.00 | 0.00 | 0.00 | 39 | 1010.6 |
| 20260508150043 | 58 | 149 | 0.9 | 7.0 | 0.00 | 0.00 | 0.00 | 45 | 1010.7 |
| 20260508144552 | 57 | 207 | 3.5 | 5.2 | 0.00 | 0.00 | 0.00 | 42 | 1010.9 |
| 20260508143052 | 56 | 203 | 3.5 | 7.0 | 0.00 | 0.00 | 0.00 | 52 | 1010.8 |
| 20260508141548 | 55 | 142 | 1.7 | 4.3 | 0.00 | 0.00 | 0.00 | 57 | 1010.9 |
| 20260508140052 | 54 | 172 | 2.6 | 6.1 | 0.00 | 0.00 | 0.00 | 60 | 1011.1 |
| 20260508134547 | 53 | 213 | 0.9 | 6.1 | 0.00 | 0.00 | 0.00 | 64 | 1011.1 |
| 20260508133046 | 52 | 239 | 3.5 | 5.2 | 0.00 | 0.00 | 0.00 | 64 | 1011.2 |
| 20260508131550 | 51 | 221 | 0.9 | 5.2 | 0.00 | 0.00 | 0.00 | 70 | 1011.3 |
| 20260508124553 | 49 | 240 | 2.6 | 3.5 | 0.00 | 0.00 | 0.00 | 72 | 1011.4 |
| 20260508123054 | 46 | 246 | 0.9 | 2.6 | 0.00 | 0.00 | 0.00 | 75 | 1011.4 |
| 20260508121606 | 43 | 194 | 0.0 | 1.7 | 0.00 | 0.00 | 0.00 | 80 | 1011.2 |
| 20260508120051 | 41 | 194 | 0.0 | 0.9 | 0.00 | 0.00 | 0.00 | 87 | 1011.0 |
| 20260508114548 | 36 | 0 | 0.0 | 0.0 | 0.00 | 0.00 | 0.00 | 92 | 1011.0 |
| 20260508113043 | 34 | 0 | 0.0 | 1.7 | 0.00 | 0.00 | 0.00 | 92 | 1010.8 |
| 20260508111549 | 31 | 0 | 0.0 | 0.0 | 0.00 | 0.00 | 0.00 | 90 | 1010.7 |
| 20260508110049 | 31 | 0 | 0.0 | 0.0 | 0.00 | 0.00 | 0.00 | 90 | 1010.6 |
| 20260508104558 | 32 | 0 | 0.0 | 0.0 | 0.00 | 0.00 | 0.00 | 89 | 1010.6 |
| 20260508103049 | 32 | 0 | 0.0 | 0.0 | 0.00 | 0.00 | 0.00 | 90 | 1010.4 |
| 20260508101548 | 32 | 0 | 0.0 | 0.0 | 0.00 | 0.00 | 0.00 | 89 | 1010.5 |
| 20260508100047 | 32 | 0 | 0.0 | 0.0 | 0.00 | 0.00 | 0.00 | 88 | 1010.7 |
| 20260508094548 | 33 | 0 | 0.0 | 0.9 | 0.00 | 0.00 | 0.00 | 89 | 1010.6 |
| 20260508093055 | 33 | 0 | 0.0 | 0.0 | 0.00 | 0.00 | 0.00 | 88 | 1010.7 |
| 20260508091559 | 34 | 0 | 0.0 | 1.7 | 0.00 | 0.00 | 0.00 | 87 | 1010.7 |
| 20260508084549 | 34 | 194 | 0.0 | 1.7 | 0.00 | 0.00 | 0.00 | 87 | 1010.6 |
| 20260508083049 | 34 | 0 | 0.0 | 1.7 | 0.00 | 0.00 | 0.00 | 88 | 1010.7 |
| 20260508081558 | 34 | 0 | 0.0 | 1.7 | 0.00 | 0.00 | 0.00 | 88 | 1010.6 |
| 20260508080055 | 34 | 0 | 0.0 | 1.7 | 0.00 | 0.00 | 0.00 | 87 | 1010.8 |